Weather in Panikovichi

Russia / Pskov Oblast     57°41′23″N   27°33′56″E
temp.,
°C
wind,
m/s
gust,
m/s
humid.,
%
clouds,
%
prec.,
mm/h
press.,
hPa
HPBL,
m
13 april, tue
tue1300:00+9sse41271100 0.0 1019302
03:00+8s2280100 0.0 101951
06:00+8sse258097 0.0 1018141
09:00+10sw246996 0.0 1019334
12:00+11wnw3276100 0.0 1019669
15:00+7nw3585100 0.4 1021423
18:00+5nw4791100 0.2 1021509
21:00+4nnw4794100 0.3 1021551
14 april, wed
wed1400:00+2n4896100 0.1 1020447
03:00+2nnw41097100 0.7 1020408
06:00+1n3898100 0.4 1020333
09:00+1n3899100 1.7 1021252
12:00+4nne3680100 0.4 1021749
15:00+6nne465994 0.4 1021963
18:00+6n4767100 0.0 1021631
21:00+4nne397590 0.0 1022358
15 april, thu
thu1500:00+2nne3108273 0.0 1023376
03:00+1nne3988100 0.0 1023328
06:00+2nne41284100 0.0 1023457
09:00+3nne5137699 0.0 1024584
12:00+7nne61154100 0.0 1024927
15:00+9ne61047100 0.0 10231280
18:00+8ne51055100 0.0 10231197
21:00+6ne51164100 0.0 1025919
16 april, fri
fri1600:00+4nne51273100 0.1 1025625
03:00+3nne41273100 0.1 1025535
06:00+2nne51277100 0.0 1026493
09:00+3ne5127295 0.0 1026502
12:00+9ne695321 0.0 1026957
15:00+11ne683622 0.0 10261256
18:00+11ene59425 0.0 10271256
21:00+7ne412577 0.0 1028432
17 april, sat
sat1700:00+4ne412695 0.0 1030432
03:00+3ne4127714 0.0 1031435
06:00+2ne4127990 0.0 1032373
09:00+6ene510605 0.0 1032514
12:00+10ene58435 0.0 10321101
15:00+12ene57375 0.0 10321398
18:00+12ene46440 0.0 10321351
21:00+7ene310640 0.0 1033257